Hourly Weather Russkie Shoi

Today, 11 April, Sunday

Time Temperature Precipitation Wind Pressure Humidity
00:00 +2°C° 0 mm 1 mps 756 mmHg 99%
01:00 +2°C° 0 mm 1 mps 757 mmHg 99%
02:00 +2°C° 0 mm 1 mps 757 mmHg 99%
03:00 +2°C° 0 mm 1 mps 757 mmHg 99%
04:00 +2°C° 0 mm 1 mps 757 mmHg 99%
05:00 +2°C° 0 mm 1 mps 757 mmHg 99%
06:00 +2°C° 0 mm 1 mps 758 mmHg 99%
07:00 +2°C° 0.3 mm 1 mps 758 mmHg 99%
08:00 +3°C° 0.3 mm 1 mps 758 mmHg 99%
09:00 +2°C° 0.3 mm 2 mps 759 mmHg 99%
10:00 +3°C° 0.2 mm 2 mps 759 mmHg 99%
11:00 +3°C° 0.2 mm 2 mps 759 mmHg 98%
12:00 +4°C° 0.2 mm 2 mps 760 mmHg 98%
13:00 +4°C° 0 mm 2 mps 760 mmHg 96%
14:00 +5°C° 0 mm 1 mps 760 mmHg 93%
15:00 +5°C° 0 mm 1 mps 761 mmHg 91%
16:00 +4°C° 0 mm 1 mps 761 mmHg 92%
17:00 +3°C° 0 mm 1 mps 762 mmHg 94%
18:00 +2°C° 0 mm 1 mps 762 mmHg 95%
19:00 +2°C° 0 mm 1 mps 762 mmHg 94%
20:00 +2°C° 0 mm 1 mps 762 mmHg 93%
21:00 +1°C° 0 mm 1 mps 763 mmHg 92%
22:00 +1°C° 0 mm 1 mps 763 mmHg 91%
23:00 +1°C° 0 mm 1 mps 763 mmHg 91%

Tomorrow, 12 April, Monday

Time Temperature Precipitation Wind Pressure Humidity
00:00 +1°C° 0 mm 1 mps 763 mmHg 90%
01:00 +1°C° 0 mm 1 mps 764 mmHg 91%
02:00 +1°C° 0 mm 1 mps 764 mmHg 91%
03:00 +1°C° 0 mm 1 mps 765 mmHg 91%
04:00 +1°C° 0 mm 2 mps 765 mmHg 91%
05:00 +1°C° 0 mm 2 mps 765 mmHg 90%
06:00 +1°C° 0 mm 2 mps 765 mmHg 89%
07:00 +3°C° 0 mm 2 mps 765 mmHg 88%
08:00 +4°C° 0 mm 2 mps 766 mmHg 87%
09:00 +4°C° 0 mm 3 mps 766 mmHg 85%
10:00 +5°C° 0 mm 3 mps 766 mmHg 82%
11:00 +7°C° 0 mm 3 mps 766 mmHg 80%
12:00 +7°C° 0 mm 4 mps 766 mmHg 77%
13:00 +9°C° 0 mm 3 mps 765 mmHg 77%
14:00 +9°C° 0 mm 3 mps 765 mmHg 78%
15:00 +9°C° 0 mm 3 mps 765 mmHg 79%
16:00 +8°C° 0 mm 3 mps 765 mmHg 83%
17:00 +7°C° 0 mm 2 mps 765 mmHg 87%
18:00 +6°C° 0 mm 2 mps 765 mmHg 91%
19:00 +5°C° 0 mm 2 mps 765 mmHg 91%
20:00 +5°C° 0 mm 2 mps 765 mmHg 91%
21:00 +5°C° 0 mm 2 mps 765 mmHg 91%
22:00 +4°C° 0 mm 2 mps 765 mmHg 91%
23:00 +4°C° 0 mm 2 mps 764 mmHg 91%

Day after tomorrow, 13 April, Tuesday

Time Temperature Precipitation Wind Pressure Humidity
00:00 +4°C° 0 mm 2 mps 764 mmHg 91%
01:00 +4°C° 0 mm 2 mps 764 mmHg 92%
02:00 +3°C° 0 mm 2 mps 764 mmHg 92%
03:00 +3°C° 0 mm 2 mps 764 mmHg 93%
04:00 +3°C° 0 mm 2 mps 763 mmHg 94%
05:00 +4°C° 0 mm 2 mps 763 mmHg 95%
06:00 +4°C° 0 mm 2 mps 763 mmHg 96%
07:00 +6°C° 0 mm 2 mps 763 mmHg 91%
08:00 +9°C° 0 mm 3 mps 763 mmHg 86%
09:00 +11°C° 0 mm 3 mps 763 mmHg 81%
10:00 +12°C° 0 mm 3 mps 762 mmHg 76%
11:00 +14°C° 0 mm 4 mps 762 mmHg 71%
12:00 +15°C° 0 mm 4 mps 762 mmHg 67%
13:00 +17°C° 0 mm 4 mps 761 mmHg 65%
14:00 +17°C° 0 mm 4 mps 761 mmHg 64%
15:00 +17°C° 0 mm 4 mps 761 mmHg 62%
16:00 +16°C° 0 mm 3 mps 760 mmHg 67%
17:00 +14°C° 0 mm 3 mps 760 mmHg 72%
18:00 +13°C° 0 mm 2 mps 760 mmHg 77%
19:00 +12°C° 0 mm 2 mps 760 mmHg 77%
20:00 +10°C° 0 mm 2 mps 760 mmHg 77%
21:00 +9°C° 0 mm 2 mps 760 mmHg 77%
22:00 +8°C° 0 mm 2 mps 760 mmHg 76%
23:00 +7°C° 0 mm 2 mps 760 mmHg 76%

14 April, Wednesday

Time Temperature Precipitation Wind Pressure Humidity
00:00 +7°C° 0 mm 2 mps 759 mmHg 75%
01:00 +7°C° 0 mm 2 mps 759 mmHg 76%
02:00 +6°C° 0 mm 2 mps 759 mmHg 77%
03:00 +6°C° 0 mm 2 mps 759 mmHg 78%
04:00 +6°C° 0 mm 2 mps 759 mmHg 78%
05:00 +6°C° 0 mm 2 mps 759 mmHg 78%
06:00 +6°C° 0 mm 2 mps 759 mmHg 78%
07:00 +8°C° 0 mm 2 mps 759 mmHg 71%
08:00 +11°C° 0 mm 3 mps 759 mmHg 64%
09:00 +13°C° 0 mm 3 mps 758 mmHg 57%
10:00 +14°C° 0 mm 3 mps 758 mmHg 53%
11:00 +16°C° 0 mm 3 mps 758 mmHg 48%
12:00 +18°C° 0 mm 4 mps 758 mmHg 44%
13:00 +18°C° 0 mm 4 mps 757 mmHg 42%
14:00 +18°C° 0 mm 4 mps 757 mmHg 41%
15:00 +18°C° 0 mm 4 mps 757 mmHg 39%
16:00 +17°C° 0 mm 3 mps 756 mmHg 45%
17:00 +16°C° 0 mm 3 mps 756 mmHg 52%
18:00 +15°C° 0 mm 2 mps 756 mmHg 58%
19:00 +13°C° 0 mm 2 mps 756 mmHg 62%
20:00 +12°C° 0 mm 2 mps 756 mmHg 65%
21:00 +10°C° 0 mm 2 mps 755 mmHg 69%
22:00 +9°C° 0 mm 2 mps 755 mmHg 70%
23:00 +9°C° 0 mm 2 mps 755 mmHg 71%

15 April, Thursday

Time Temperature Precipitation Wind Pressure Humidity
00:00 +8°C° 0 mm 2 mps 755 mmHg 72%
01:00 +8°C° 0 mm 2 mps 755 mmHg 72%
02:00 +7°C° 0 mm 2 mps 754 mmHg 72%
03:00 +7°C° 0 mm 2 mps 754 mmHg 72%
04:00 +7°C° 0 mm 2 mps 754 mmHg 71%
05:00 +7°C° 0 mm 2 mps 754 mmHg 70%
06:00 +7°C° 0 mm 2 mps 754 mmHg 70%
07:00 +9°C° 0 mm 2 mps 753 mmHg 63%
08:00 +12°C° 0 mm 2 mps 753 mmHg 57%
09:00 +14°C° 0 mm 2 mps 753 mmHg 50%
10:00 +14°C° 0 mm 3 mps 752 mmHg 46%
11:00 +17°C° 0 mm 3 mps 752 mmHg 41%
12:00 +18°C° 0 mm 3 mps 752 mmHg 37%
13:00 +18°C° 0 mm 3 mps 751 mmHg 36%
14:00 +18°C° 0 mm 3 mps 751 mmHg 34%
15:00 +19°C° 0 mm 3 mps 750 mmHg 33%
16:00 +18°C° 0 mm 3 mps 750 mmHg 38%
17:00 +16°C° 0 mm 2 mps 749 mmHg 43%
18:00 +15°C° 0 mm 2 mps 749 mmHg 49%
19:00 +14°C° 0 mm 2 mps 749 mmHg 53%
20:00 +13°C° 0 mm 2 mps 748 mmHg 57%
21:00 +10°C° 0 mm 2 mps 748 mmHg 61%
22:00 +10°C° 0 mm 2 mps 748 mmHg 64%
23:00 +9°C° 0 mm 2 mps 747 mmHg 67%

16 April, Friday

Time Temperature Precipitation Wind Pressure Humidity
00:00 +8°C° 0 mm 2 mps 747 mmHg 71%
01:00 +7°C° 0 mm 3 mps 747 mmHg 77%
02:00 +6°C° 0 mm 4 mps 747 mmHg 84%
03:00 +5°C° 0 mm 5 mps 747 mmHg 91%
04:00 +3°C° 0 mm 5 mps 748 mmHg 90%
05:00 +2°C° 0 mm 5 mps 748 mmHg 89%
06:00 +2°C° 0 mm 5 mps 748 mmHg 88%
07:00 +1°C° 0 mm 5 mps 748 mmHg 88%
08:00 +1°C° 0 mm 5 mps 748 mmHg 87%
09:00 +1°C° 0 mm 5 mps 748 mmHg 86%
10:00 +3°C° 0 mm 6 mps 748 mmHg 71%
11:00 +4°C° 0 mm 6 mps 748 mmHg 57%
12:00 +7°C° 0 mm 6 mps 748 mmHg 42%
13:00 +6°C° 0 mm 7 mps 748 mmHg 43%
14:00 +5°C° 0 mm 7 mps 748 mmHg 43%
15:00 +5°C° 0 mm 7 mps 748 mmHg 43%
16:00 +4°C° 0.1 mm 7 mps 749 mmHg 49%
17:00 +3°C° 0.1 mm 7 mps 749 mmHg 55%
18:00 +2°C° 0.1 mm 7 mps 750 mmHg 60%
19:00 +2°C° 0 mm 7 mps 750 mmHg 62%
20:00 0°C° 0 mm 7 mps 750 mmHg 64%
21:00 -1°C° 0 mm 6 mps 751 mmHg 66%
22:00 -1°C° 0 mm 6 mps 751 mmHg 67%
23:00 -2°C° 0 mm 6 mps 751 mmHg 69%
Show more